Tracking 29528 objects as of 12-Sep-2024
HD Live streaming from Space Station
objects crossing your sky now

FENGYUN 1C DEB

Track FENGYUN 1C DEB now!
10-day predictions


NORAD ID: 31715
Int'l Code: 1999-025CDN
Perigee: 603.9 km
Apogee: 902.9 km
Inclination: 99.3 °
Period: 99.7 minutes
Semi major axis: 7124 km
RCS: 0.0108 m2 (small)
Launch date: May 10, 1999
Source: People's Republic of China (PRC)
Launch site: Taiyaun Space Center, China (TSC)

Note: This is SATELLITE DEBRIS
Your satellite tracking list
Your tracking list is empty




NASA's NSSDC Master Catalog

Two Line Element Set (TLE):
1 31715U 99025CDN 24255.32281168  .00010443  00000-0  23612-2 0  9999
2 31715  99.2575  32.5237 0209821  36.9432 324.5999 14.43701719550948
Source of the keplerian elements: AFSPC